Regional Weather Roundup
Issued by NWS Binghamton, NY

Home | Current Version | Previous Version | Text Only | Print | Product List | Glossary On
Versions: 1 2 3 4 5 6 7 8 9 10 11 12 13 14 15 16 17 18 19 20 21 22 23 24 25 26 27
000
ASUS41 KBGM 310610
RWRBGM

REGIONAL WEATHER ROUNDUP
NATIONAL WEATHER SERVICE BINGHAMTON NY
200 AM EDT SUN JUL 31 2016

Note: "fair" indicates few or no clouds below 12,000 feet with no
significant weather and/or obstructions to visibility.

* = Station(s) that does not report precipitation, such as rain,
snow, etc, also no thunder or fog.

NYZ009-015>018-022>025-036-037-044>046-055>057-062-310700
...Central New York...

CITY           SKY/WX    TMP DP  RH WIND       PRES   REMARKS
Binghamton     HVY RAIN  65  64  97 SE6       30.04F FOG
Cortland       CLOUDY    68  64  88 CALM      30.04F
Dansville      MOCLDY    66  63  90 S3        30.02S
Elmira         CLOUDY    69  65  86 E5        30.00F
Ithaca         CLOUDY    66  64  94 E6        30.02F
Hamilton       CLOUDY    66  64  94 CALM      30.05F
Hornell        CLOUDY    64  63  94 CALM      30.06S
Monticello     CLOUDY    66  66 100 E5        30.06F
Norwich        RAIN      64  64 100 CALM      30.05S
Oneonta        LGT RAIN  63  63 100 CALM      30.07F
Penn Yan       CLOUDY    69  65  86 CALM      30.02F
Rome           PTCLDY    66  64  93 E9        30.05F
Sidney         HVY RAIN  66  66 100 CALM      30.04F
Syracuse       MOCLDY    67  65  93 NE5       30.01F
$$

PAZ038>040-043-044-047-048-072-310700
...Northeast Pennsylvania...

CITY           SKY/WX    TMP DP  RH WIND       PRES   REMARKS
Hazleton       CLOUDY    68  68 100 SE5       30.06F
Scranton       MOCLDY    69  67  93 CALM      30.01F
$$
&&
KEY
WCI = Wind Chill Index
VSB = Visibility
HX  = Heat Index
$$




USA.gov is the U.S. government's official web portal to all federal, state and local government web resources and services.